Washington State Corporations
KIRKLAND

Jurisdiction: Washington State
Source: Washington State Secretary of State

This dataset includes 2.43 million business entities registered with Washington State Secretary of State.

KIRKLAND · Search Result

Corporation Name Office Address Agent Incorporation
Skunkworks LLC 5210 Lake Washington Blvd Ne Apt 204, Kirkland, WA 98033-7330 Alexa Bockmier 2020-07-17
Welkin LLC 2082 Market St, Kirkland, WA 98033-4944 Welkin LLC 2020-06-30
Qoniiventures LLC 13013 79th Pl Ne, Kirkland, WA 98034-2549 Qoniiventures, LLC 2020-06-22
Quenn Anne House LLC 5400 Carillon Pt, Kirkland, WA 98033-7357 Robert Smallfoot 2020-06-22
Sr Eastlake LLC 123 Lake St S Ste B1, Kirkland, WA 98033-6401 Jason Scott 2020-06-22
Ef Operating LLC 10499 Bradford Rd Unit 102, Littleton, CO 80127-6418 Jake Nolte 2020-06-22
Bright International LLC 9736 Ne 119th Way Apt E213, Kirkland, WA 98034-7085 Samantha Bright 2020-06-22
Pragmatic Design LLC 13325 88th Pl Ne, Kirkland, WA 98034-2630 Ran Wang 2020-06-19
Restitute Orbis, Inc. 4725 108th Ave Ne, Kirkland, WA 98033-7737 Richard Kraus 2020-06-19
Muztagh Trading Company LLC 6905 119th Ave Ne, Kirkland, WA 98033-8418 Kamran Ahsan 2020-06-19
Hc Goldpark LLC 7415 124th Ave Ne, Kirkland, WA 98033-8264 Lin Han 2020-06-19
Yifang Redmond LLC 8145 161st Ave Ne, Redmond, WA 98052-3806 Jingyu Sun 2020-06-19
Matthew D Lorenz LLC 721 4th Ave # 2304, Kirkland, WA 98033-9997 Matthew Lorenz 2020-06-19
Sm Capital, LLC 7525 Se 24th St Ste 630, Mercer Island, WA 98040-2300 Spencer Mueller 2020-06-19
Paver Construction and Trees Services B.v.j. LLC 23240 88th Ave S Apt V101, Kent, WA 98031-3191 Admyn LLC. 2020-06-19
Alpine Living LLC 9201 Ne Juanita Dr Apt 103, Kirkland, WA 98034-6126 Anna Galaeva 2020-06-19
Es Chem LLC 421 13th Ave W, Kirkland, WA 98033-5311 Yaqing Sun 2020-06-18
Cabins At The Farm LLC 10829 Ne 68th St Ste B, Kirkland, WA 98033-4006 Austin Roupe 2020-06-18
Quail Cottage, LLC 10510 Northup Way Ste 300, Kirkland, WA 98033-7928 Don Carlin 2020-06-18
Romo Landscaping LLC 11230 Ne 132nd St Apt C203, Kirkland, WA 98034-4761 Luis Felipe Romo Romero 2020-06-18
Frontai LLC 10032 Ne 38th Ct, Kirkland, WA 98033-7880 Shu Huang 2020-06-17
Softrans Group Inc. 11615 Ne 155th St, Kirkland, WA 98034-4659 Boris Capatina 2020-06-17
Inviro-clean, LLC 7321 126th Ave Ne, Kirkland, WA 98033-8323 Peter Schaaf 2020-06-17
Honu Perspective, LLC 8021 124th Ave Ne, Kirkland, WA 98033-8019 Blake Anderson 2020-06-17
Mill Street Lodges LLC 9411 110th Pl Ne, Kirkland, WA 98033-4205 Christopher Hall 2020-06-16
Jelly Jazz Corporation 14510 124th Ave Ne, Kirkland, WA 98034-1271 Raquel Jazmin Becerra Ochoa 2020-06-16
D2a Consulting LLC 11225 Ne 68th St Apt 3, Kirkland, WA 98033-4001 Demetrio Dambrosi 2020-06-16
Quincey Moon LLC 8512 122nd Ave Ne # 259, Kirkland, WA 98033-5831 K Ngo 2020-06-16
Klac, LLC 13048 Holmes Point Dr Ne, Kirkland, WA 98034-1666 Klac, LLC 2020-06-16
Atlas Physioworks LLC 13410 Highway 99 Ste 205, Everett, WA 98204-5454 Daniel Beeman 2020-06-16
Melissa Lacayo Inc 13120 Ne 120th Ln Apt C105, Kirkland, WA 98034-8090 North West Tax Specialists 2020-06-16
Cody Molner Real Estate Professional Limited Liability Company 11109 Slater Ave Ne Ste 200a, Kirkland, WA 98033-8843 Cody Molner Real Estate Pllc 2020-06-16
Jump Scare Studios, LLC 9628 Ne 136th St, Kirkland, WA 98034-1817 Kelly Wahlund 2020-06-15
Rey Amargo Holdings LLC 218 Main St Ste 456, Kirkland, WA 98033-6108 Stephen Walroth-sadurni 2020-06-15
Tcg Construction, LLC 805 Kirkland Ave Ste 200, Kirkland, WA 98033-8150 The Cordillera Group 2020-06-15
Pm Lifestyle, LLC 6401 Lake Wa Blvd Ne Apt 301, Kirkland, WA 98033-6878 Peggy Murakami 2020-06-15
Twilight Digital, Inc 12726 Ne 103rd Pl, Kirkland, WA 98033-5228 James Klappenbach 2020-06-15
Pcb International LLC 311 10th Ave, Kirkland, WA 98033-5520 United States Corporation Agents, Inc. 2020-06-12
Oasis 5960 LLC 8208 Ne 115th Way, Kirkland, WA 98034-3506 Sharon Moncada 2020-06-12
Camerica LLC 10929 102nd Ave Ne, Kirkland, WA 98033-4427 Cameron Main 2020-06-12
Jnw Media, LLC 6201 101st Ct Ne, Kirkland, WA 98033-6980 Amicus Law Group PC 2020-06-11
Lola Hair Design, LLC 11719 114th Pl Ne, Kirkland, WA 98034-7026 Lola Kassamali 2020-06-11
Sri Rama Group LLC 13121 Ne 133rd Ct, Kirkland, WA 98034-2305 Ravichandra Sriram 2020-06-11
Thomas Gil Hodges, Dvm, Pllc 9102 171st Ave Se, Snohomish, WA 98290-6121 Schneider Law and Escrow, Pllc 2020-06-11
Mtns, LLC 9117 Ne Juanita Dr, Kirkland, WA 98034-3512 Jeffrey Clemons 2020-06-11
Sustain By Samantha LLC 750 State St S Apt E, Kirkland, WA 98033-3606 Samantha Doherty 2020-06-11
Manbawa Properties LLC 12204 Ne 103rd Ln, Kirkland, WA 98033-8845 Manager 2020-06-10
Soluviam Capital LLC 13728 97th Ave Ne, Kirkland, WA 98034-1874 Neil Rotta 2020-06-10
Unreadable Records LLC 10721 124th Ave Ne, Kirkland, WA 98033-4624 Joshua Herrera 2020-06-10
Better View Tree Service LLC 11001 122nd Ln Ne Apt S145, Kirkland, WA 98033-4697 Mario Rodriguez Macedo 2020-06-10
Pendrell Holicity Holdings Corporation 2300 Carillon Pt, Kirkland, WA 98033-7445 Joe Viraldo 2020-06-09
Mignon Incessant Group LLC 8324 Ne 143rd St, Kirkland, WA 98034-5080 Mignon Malicdem 2020-06-09
Collinge Arms LLC 10054 116th Ave Ne, Kirkland, WA 98033-5150 Shawn Collinge 2020-06-09
Hhg101 LLC 9805 Ne 116th St Ste 7255, Kirkland, WA 98034-4245 Brandon Carroll 2020-06-09
Lakeview General Contracting, LLC 6207 Lake Washington Blvd Ne, Kirkland, WA 98033-6803 Law Office of Dan J. Donlan, Pllc 2020-06-09
Bridges To Hope: Prison College Access 1120 2nd St, Kirkland, WA 98033-5547 Claudia Jensen 2020-06-09
Bitworkers Studio LLC 11629 Ne 74th St, Kirkland, WA 98033-8113 Tim Mcconnell 2020-06-08
Next Up LLC 402 10th St Apt F301, Kirkland, WA 98033-8139 Dirikc Trotter 2020-06-08
Grace Place Mi LLC 10604 Ne 38th Pl Ste 215, Kirkland, WA 98033-7932 Imagine Housing 2020-06-08
Cadence Kirkland, LLC 317 4th St, Kirkland, WA 98033-6213 Blake Lanz 2020-06-05
Jerad's Aluminum Polishing LLC 9744 132nd Ave Ne, Kirkland, WA 98033-5222 Jerad Foskett 2020-06-05
3rd Millennium Partners 5671 Santa Teresa Blvd Ste 216, San Jose, CA 95123-6512 Ron Branch 2020-06-05
G200a LLC 511 15th Ave, Kirkland, WA 98033-5608 Lpsl Corporate Services Inc 2020-06-04
Pacific General Solutions LLC 11453 79th Way Ne, Kirkland, WA 98034-5849 Woo Cho 2020-06-04
Bullelk LLC 502 State Ave Ste 101, Marysville, WA 98270-4572 Rick Whitney 2020-06-04
Global Health Labs, LLC 4110 Carillon Pt, Kirkland, WA 98033-7463 C T Corporation System 2020-06-03
Functor Technologies, LLC 12117 Ne 142nd St, Kirkland, WA 98034-1409 Irfan Hamid 2020-06-03
The Brewing Savage, LLC 12815 Ne 124th St Ste I, Kirkland, WA 98034-8313 Layken Savage 2020-06-03
Slimbox & Co LLC 9750 Ne 120th Pl Ste B5, Kirkland, WA 98034-4282 Adriana Perezchica 2020-06-03
Owen Wealth Management LLC 4319 Lake Washington Blvd Ne Apt 4211, Kirkland, WA 98033-7935 Corey Owen 2020-06-03
B-line Capital LLC 5010 144th Dr Se, Snohomish, WA 98290-9322 B-line Capital LLC 2020-06-02
Skro LLC 11335 Ne 122nd Way Ste 105, Kirkland, WA 98034-6933 Rosie Afo 2020-06-02
Blh Group LLC 8107 126th Pl Ne, Kirkland, WA 98033-8054 Beau Heimdahl 2020-06-01
Tarun Apeksha Properties LLC 10191 134th Pl Ne, Kirkland, WA 98033-4743 Manager 2020-06-01
Nw Power Consulting, LLC 14450 91st Ave Ne, Kirkland, WA 98034-5142 Lawrence J. Becker 2020-05-29
Mmre Properties, LLC 1626 5th Pl, Kirkland, WA 98033-5643 Mmre Properties, LLC 2020-05-28
Alden's Cheeseboards LLC 1030 14th Pl W, Kirkland, WA 98033-4801 Alden Lee 2020-05-28
Home Logic LLC 12708 Ne 101st Pl, Kirkland, WA 98033-5269 Legalcorp Solutions, LLC 2020-05-28
Susan Fredrickson Pllc 12207 105th Ave Ne, Kirkland, WA 98034-3814 Susan Fredrickson 2020-05-28
Roya Nutrition & Wellness, LLC 13216 121st Ave Ne, Kirkland, WA 98034-2145 Roya Soleymani 2020-05-28
Everledger Inc. 733 Lake St S Apt 213, Kirkland, WA 98033-6475 Incorp Services, Inc. 2020-05-28
Shop Alexandra Interiors, LLC 10116 Ne 68th St Apt E202, Kirkland, WA 98033-6979 Alexandra Bursch 2020-05-28
Enki Labs LLC 625 10th Ave, Kirkland, WA 98033-5613 Matthew Fisher 2020-05-27
Plant Pot Repeat LLC 518 3rd Ave S, Kirkland, WA 98033-3607 Jordan Robb 2020-05-27
Orion Skys LLC 753 State St S, Kirkland, WA 98033-6624 Dawn Deriso 2020-05-27
Sculpt Daily LLC 13020 Ne 73rd St, Kirkland, WA 98033-8310 Charlene Fleming 2020-05-27
1 Corinthians 4:2, LLC 12306 Ne 144th St, Kirkland, WA 98034-4503 David Odom 2020-05-27
Bigsky Information Security LLC 14543 119th Ave Ne, Kirkland, WA 98034-4601 Benjamin Ridgway 2020-05-27
Aacks, LLC 9732 Slater Ave Ne, Kirkland, WA 98033-5805 Aaron Spring 2020-05-27
Rowlanda Cawthon & Associates, LLC 5517 113th Pl Ne Apt 56, Kirkland, WA 98033-7548 Rowlanda Cawthon & Associates 2020-05-27
Sao Crisis Assessments and Counseling LLC 4730 University Wa Ne Ste 104, Seattle, WA 98105-4424 Shalin Oakes 2020-05-27
Northshore 7 Enterprises, LLC 538 11th Ave W, Kirkland, WA 98033-4833 Gregory Lacombe 2020-05-26
Holly Tipp Makeup LLC 8330 Ne 143rd St, Kirkland, WA 98034-5080 Holly Byersdorf 2020-05-26
Bethany Waller, Nd, Pllc 12615 100th Ln Ne, Kirkland, WA 98034-8832 Bethany Waller 2020-05-26
Solve Tomorrow LLC 725 9th Ave S Apt 102, Kirkland, WA 98033-6751 United States Corporation Agents, Inc. 2020-05-26
F&t Fix It and Repair LLC 10007 Ne 123rd St Apt C, Kirkland, WA 98034-6716 Farhad Tahassoni 2020-05-26
Mirakle Cosmetics LLC 300 Delaware Ave Ste 210a, Wilmington, DE 19801-6601 Murphy Bishop 2020-05-26
Bellevue One, LLC 1027 3rd St, Kirkland, WA 98033-5567 Roderick Chavez 2020-05-22
Aspect Property Solutions, LLC 12834 Ne 70th Pl, Kirkland, WA 98033-8535 Registered Agents Inc. 2020-05-22
Ade LLP 12619 Juanita Dr Ne, Kirkland, WA 98034-2564 Partner 2020-05-22